TimeCDT,TemperatureF,Dew PointF,Humidity,Sea Level PressureIn,VisibilityMPH,Wind Direction,Wind SpeedMPH,Gust SpeedMPH,PrecipitationIn,Events,Conditions,WindDirDegrees,DateUTC
12:15 AM,71.6,71.1,98,29.88,10.0,NW,5.8,-,N/A,,Overcast,310,2013-10-06 05:15:00
12:35 AM,71.6,70.0,95,29.89,10.0,WNW,13.8,19.6,N/A,,Overcast,290,2013-10-06 05:35:00
12:55 AM,70.7,68.9,94,29.88,10.0,WNW,6.9,-,N/A,,Overcast,290,2013-10-06 05:55:00
1:15 AM,70.0,68.9,96,29.87,10.0,North,3.5,-,N/A,,Overcast,10,2013-10-06 06:15:00
1:35 AM,68.7,68.4,99,29.88,2.5,NW,11.5,-,0.25,Rain,Heavy Rain,310,2013-10-06 06:35:00
1:55 AM,68.0,68.0,100,29.89,1.5,SE,5.8,-,0.67,Rain,Heavy Rain,130,2013-10-06 06:55:00
2:15 AM,68.0,67.8,99,29.88,3.0,Calm,Calm,-,0.10,Rain,Heavy Rain,0,2013-10-06 07:15:00
2:35 AM,67.6,67.6,100,29.88,3.0,Calm,Calm,-,0.37,Rain,Heavy Rain,0,2013-10-06 07:35:00
2:55 AM,67.6,67.6,100,29.88,1.0,Calm,Calm,-,0.66,Rain,Heavy Rain,0,2013-10-06 07:55:00
3:15 AM,67.5,67.5,100,29.86,4.0,Calm,Calm,-,0.07,Rain,Rain,0,2013-10-06 08:15:00
3:35 AM,67.3,67.3,100,29.86,5.0,SSE,3.5,-,0.12,Rain,Rain,160,2013-10-06 08:35:00
3:55 AM,67.3,67.3,100,29.86,5.0,Calm,Calm,-,0.20,Rain,Rain,0,2013-10-06 08:55:00
4:15 AM,67.3,67.3,100,29.86,4.0,SSE,3.5,-,0.06,Rain,Heavy Rain,150,2013-10-06 09:15:00
4:35 AM,67.3,67.3,100,29.85,5.0,SSE,3.5,-,0.15,Rain,Rain,150,2013-10-06 09:35:00
4:55 AM,67.3,67.3,100,29.85,3.0,Calm,Calm,-,0.25,Rain,Heavy Rain,0,2013-10-06 09:55:00
5:15 AM,67.5,67.5,100,29.85,3.0,Calm,Calm,-,0.08,Rain,Rain,0,2013-10-06 10:15:00
5:35 AM,67.3,67.3,100,29.86,7.0,Calm,Calm,-,0.14,Rain,Rain,0,2013-10-06 10:35:00
5:55 AM,63.9,63.9,100,29.90,5.0,WNW,10.4,19.6,0.21,Rain,Heavy Rain,290,2013-10-06 10:55:00
6:15 AM,59.4,59.4,100,29.88,7.0,NNW,11.5,18.4,0.07,Rain,Rain,340,2013-10-06 11:15:00
6:35 AM,58.5,58.5,100,29.88,7.0,NNW,4.6,-,0.14,Rain,Rain,340,2013-10-06 11:35:00
6:55 AM,58.1,58.1,100,29.87,10.0,North,6.9,-,0.16,Rain,Light Rain,350,2013-10-06 11:55:00
7:15 AM,58.1,58.1,100,29.87,10.0,NW,3.5,-,0.01,Rain,Light Rain,310,2013-10-06 12:15:00
7:35 AM,58.1,58.1,100,29.89,10.0,WNW,9.2,-,0.01,Rain,Rain,290,2013-10-06 12:35:00
7:55 AM,57.2,57.2,100,29.88,5.0,NW,9.2,-,0.01,,Drizzle,310,2013-10-06 12:55:00
8:15 AM,56.8,56.8,100,29.89,10.0,WNW,5.8,-,N/A,,Overcast,290,2013-10-06 13:15:00
8:35 AM,57.2,57.2,100,29.89,10.0,WNW,8.1,-,N/A,,Overcast,300,2013-10-06 13:35:00
8:55 AM,56.7,56.7,100,29.90,7.0,WNW,6.9,-,N/A,,Overcast,300,2013-10-06 13:55:00
9:15 AM,56.1,55.8,99,29.91,3.0,WNW,6.9,-,N/A,,Light Drizzle,290,2013-10-06 14:15:00
9:35 AM,55.4,55.4,100,29.90,1.8,WNW,3.5,-,N/A,,Heavy Drizzle,290,2013-10-06 14:35:00
9:55 AM,55.8,55.8,100,29.90,2.5,Calm,Calm,-,0.01,,Drizzle,0,2013-10-06 14:55:00
10:15 AM,56.3,56.3,100,29.90,7.0,Calm,Calm,-,N/A,,Overcast,0,2013-10-06 15:15:00
10:35 AM,57.2,57.2,100,29.90,7.0,West,5.8,-,N/A,,Light Drizzle,260,2013-10-06 15:35:00
10:55 AM,57.4,57.4,100,29.90,2.0,West,5.8,-,N/A,,Drizzle,260,2013-10-06 15:55:00
11:15 AM,58.1,58.1,100,29.89,10.0,West,5.8,-,N/A,,Overcast,260,2013-10-06 16:15:00
11:35 AM,58.1,56.5,94,29.89,10.0,West,9.2,-,N/A,,Overcast,270,2013-10-06 16:35:00
11:55 AM,59.5,55.8,87,29.89,10.0,WSW,8.1,-,N/A,,Overcast,240,2013-10-06 16:55:00
12:15 PM,60.6,56.5,86,29.88,10.0,West,5.8,-,N/A,,Overcast,270,2013-10-06 17:15:00
12:35 PM,61.3,56.3,83,29.88,10.0,SW,6.9,-,N/A,,Overcast,220,2013-10-06 17:35:00
12:55 PM,61.9,55.6,80,29.87,10.0,SW,8.1,-,N/A,,Overcast,230,2013-10-06 17:55:00
1:15 PM,63.5,55.9,76,29.86,10.0,WSW,9.2,-,N/A,,Overcast,250,2013-10-06 18:15:00
1:35 PM,62.6,53.1,71,29.85,10.0,West,6.9,-,N/A,,Overcast,270,2013-10-06 18:35:00
1:55 PM,62.6,54.5,75,29.85,10.0,SW,6.9,-,N/A,,Overcast,220,2013-10-06 18:55:00
2:15 PM,62.6,55.2,77,29.85,10.0,SSW,9.2,-,N/A,,Overcast,200,2013-10-06 19:15:00
2:35 PM,62.8,55.6,77,29.84,10.0,SSW,6.9,-,N/A,,Overcast,200,2013-10-06 19:35:00
2:55 PM,63.7,56.3,77,29.84,10.0,South,9.2,-,N/A,,Overcast,190,2013-10-06 19:55:00
3:15 PM,65.7,54.3,67,29.83,10.0,SW,15.0,19.6,N/A,,Mostly Cloudy,230,2013-10-06 20:15:00
3:35 PM,67.1,52.9,60,29.83,10.0,WSW,13.8,-,N/A,,Clear,240,2013-10-06 20:35:00
3:55 PM,67.1,53.1,61,29.83,10.0,WSW,11.5,19.6,N/A,,Scattered Clouds,240,2013-10-06 20:55:00
4:15 PM,65.3,53.1,65,29.82,10.0,SW,10.4,16.1,N/A,,Scattered Clouds,230,2013-10-06 21:15:00
4:35 PM,65.3,53.6,66,29.82,10.0,SW,10.4,-,N/A,,Clear,230,2013-10-06 21:35:00
4:55 PM,64.9,54.0,68,29.83,10.0,SSW,4.6,-,N/A,,Clear,200,2013-10-06 21:55:00
5:15 PM,64.9,54.7,69,29.83,10.0,SSW,5.8,-,N/A,,Clear,210,2013-10-06 22:15:00
5:35 PM,64.0,55.0,73,29.83,10.0,SW,4.6,-,N/A,,Clear,220,2013-10-06 22:35:00
5:55 PM,63.0,55.4,76,29.84,10.0,WSW,5.8,-,N/A,,Clear,240,2013-10-06 22:55:00
6:15 PM,63.7,52.2,66,29.85,10.0,West,6.9,-,N/A,,Clear,260,2013-10-06 23:15:00
6:35 PM,62.6,52.2,69,29.85,10.0,West,6.9,-,N/A,,Clear,270,2013-10-06 23:35:00
6:55 PM,61.3,52.2,72,29.85,10.0,West,6.9,-,N/A,,Clear,270,2013-10-06 23:55:00
7:15 PM,60.4,52.3,75,29.86,10.0,West,5.8,-,N/A,,Clear,270,2013-10-07 00:15:00
7:35 PM,60.1,52.0,75,29.87,10.0,West,5.8,-,N/A,,Clear,270,2013-10-07 00:35:00
7:55 PM,59.5,52.0,76,29.88,10.0,West,5.8,-,N/A,,Clear,260,2013-10-07 00:55:00
8:15 PM,59.2,51.8,77,29.89,10.0,NW,6.9,-,N/A,,Clear,310,2013-10-07 01:15:00
8:35 PM,58.5,51.8,79,29.90,10.0,NW,5.8,-,N/A,,Scattered Clouds,320,2013-10-07 01:35:00
8:55 PM,58.3,50.4,75,29.91,10.0,NW,10.4,-,N/A,,Scattered Clouds,320,2013-10-07 01:55:00
9:15 PM,58.1,47.8,69,29.92,10.0,NW,10.4,16.1,N/A,,Scattered Clouds,320,2013-10-07 02:15:00
9:35 PM,57.2,46.8,68,29.94,10.0,NW,5.8,-,N/A,,Clear,320,2013-10-07 02:35:00
9:55 PM,55.0,47.3,75,29.94,10.0,NW,3.5,-,N/A,,Scattered Clouds,320,2013-10-07 02:55:00
10:15 PM,54.5,46.9,76,29.96,10.0,WNW,3.5,-,N/A,,Scattered Clouds,300,2013-10-07 03:15:00
10:35 PM,53.6,47.3,79,29.95,10.0,WNW,3.5,-,N/A,,Scattered Clouds,290,2013-10-07 03:35:00
10:55 PM,52.3,47.3,83,29.95,10.0,West,3.5,-,N/A,,Clear,270,2013-10-07 03:55:00
11:15 PM,52.7,46.9,81,29.96,10.0,West,3.5,-,N/A,,Clear,280,2013-10-07 04:15:00
11:35 PM,51.8,46.2,81,29.96,10.0,WNW,4.6,-,N/A,,Clear,290,2013-10-07 04:35:00
11:55 PM,50.9,45.9,83,29.96,10.0,West,4.6,-,N/A,,Clear,260,2013-10-07 04:55:00